sat.trackr.live / text

‹ back to catalog

STARLINK-5528

NORAD 56890 · 2023-083Q

PAYLOAD ACTIVE UNKNOWN

§ Identity

Operator
Country
US
Launch date
2023-06-12
Launch site
AFETR
Launch vehicle
Mass (kg)
RCS (m²)

Purposes: comms

External: N2YO · Heavens-Above · Gunter

§ Orbital elements

Epoch: 2026-05-25T00:17:28.161600Z

Period
94.27 min
Inclination
43.0032°
Eccentricity
0.0001167
Mean motion
15.27586016 rev/d
Perigee alt
482.2 km
Apogee alt
483.8 km
Semi-major
6,861.2 km
B*
2.1879e-5
RAAN
17.5125°
Arg perigee
284.1861°
Mean anomaly
75.8861°
Rev number
16,326

§ Raw data

STARLINK-55281 56890U 23083Q   26145.01213150  .00000340  00000+0  21879-4 0  99922 56890  43.0032  17.5125 0001167 284.1861  75.8861 15.27586016163262

JSON: /api/v1/satellites/56890 · /tle

For live sub-satellite position, see the globe view (requires WebGL).

§ Visibility from observer

Set your observer location to see the next 7 days of passes ≥ 10°. The values pass through the URL so the page stays shareable.

No JS? Fill the form by hand. The geolocation button needs JavaScript.